sat.trackr.live / text

‹ back to catalog

STARLINK-5318

NORAD 55304 · 2023-010AM

PAYLOAD ACTIVE UNKNOWN

§ Identity

Operator
Country
US
Launch date
2023-01-19
Launch site
AFWTR
Launch vehicle
Mass (kg)
RCS (m²)

Purposes: comms

External: N2YO · Heavens-Above · Gunter

§ Orbital elements

Epoch: 2026-09-20T08:38:19.680864Z

Period
96.11 min
Inclination
69.9980°
Eccentricity
0.0003478
Mean motion
14.98333123 rev/d
Perigee alt
569.6 km
Apogee alt
574.5 km
Semi-major
6,950.2 km
B*
4.5628e-5
RAAN
253.4263°
Arg perigee
269.5208°
Mean anomaly
90.5553°
Rev number
20,243

§ Raw data

STARLINK-53181 55304U 23010AM  26263.35995001  .00000451  00000+0  45628-4 0  99922 55304  69.9980 253.4263 0003478 269.5208  90.5553 14.98333123202434

JSON: /api/v1/satellites/55304 · /tle

For live sub-satellite position, see the globe view (requires WebGL).

§ Visibility from observer

Set your observer location to see the next 7 days of passes ≥ 10°. The values pass through the URL so the page stays shareable.

No JS? Fill the form by hand. The geolocation button needs JavaScript.